カタログに戻る

USA 314

運用中軍事SSO
NORAD 48247·PAYLOAD·🇺🇸 United States

打ち上げ Apr 26, 2021 から Vandenberg Space Force Base

Loading…

次のパス (今後24時間)

TLE

古いSource: Mike McCants

元期: Aug 22, 2026, 23:23 UTC

1 48247U 21032A   26234.97495525 0.00000050  00000-0  67998-5 0    08
2 48247  98.0205 349.5991 0157010   4.1627 355.8371 14.70576598    09

AllMySatでUSA 314をリアルタイム追跡

Download on the App Store